Погода в Анжеро-Судженске

Россия / Кемеровская область (Кузбасс)     56°04′59″N   86°01′05″E
темп.,
°C
ветер,
м/с
пор.,
м/с
влажн.,
%
обл.,
%
осадки,
мм/ч
давл.,
гПа
погр.,
м
22 октября, пт
пт2201:00+6ююз31264100 0.0 1012254
04:00+5ю3126897 0.0 1011241
07:00+7ю41457100 0.0 1011341
10:00+8ю51457100 0.0 1011636
13:00+8юз61472100 0.0 10131123
16:00+6юз61366100 0.0 10161377
19:00+4юз61462100 0.0 10191432
22:00+3юз61466100 0.0 10211429
23 октября, сб
сб2301:00+2юз6126984 0.0 10221270
04:00+1ююз6146737 0.0 1023846
07:00+2ююз6146329 0.0 1022994
10:00+3ююз71656100 0.0 10211451
13:00+4ююз81656100 0.0 10191350
16:00+4ююз71666100 0.0 10171198
19:00+2ююз81992100 1.8 10151278
22:00+2ююз81996100 4.9 10141132
24 октября, вс
вс2401:00+4юз81696100 6.7 10131119
04:00+5юз71586100 0.6 10141015
07:00+5юз71583100 0.6 10141042
10:00+5юз71586100 0.2 10141168
13:00+7зюз71474100 0.3 10141352
16:00+8зюз61374100 0.1 10161495
19:00+7з5127697 0.4 10191068
22:00+5зюз4108495 0.2 1021399
25 октября, пн
пн2501:00+5юз3994100 0.3 1021357
04:00+5ююз31096100 0.0 1020389
07:00+5ююз41294100 0.0 1019483
10:00+6ююз61591100 1.1 1017744
13:00+9юз7167688 1.1 10141088
16:00+10юз7156687 0.0 10141124
19:00+9юз7146790 0.0 1015951
22:00+6зюз5137351 0.0 1017699
26 октября, вт
вт2601:00+4зюз3108668 0.0 1019385
04:00+2зюз249595 0.0 102089
07:00+1ю119495 0.0 102110
10:00+3ююв278896 0.0 1019213
13:00+8ю4870100 0.0 1017471
16:00+8ю31072100 0.0 1014457
19:00+6ю41183100 0.0 1012307
22:00+6ю41480100 0.0 1010411